Location: Halle (Saale)
(51.4970°N, 11.9688°E)
Time: 08:20:25
(UTC+01:00)

ISS - Visible Passes

Search period start: 26 October 2020 00:00
Search period end: 05 November 2020 00:00
Orbit: 417 x 420 km, 51.6° (Epoch: 26 October)

Date Brightness Start Highest point End Pass type
(mag) Time Alt. Az. Time Alt. Az. Time Alt. Az.
26 Oct -1.9 05:07:09 15° SSW 05:09:08 26° SSE 05:12:00 10° E visible
27 Oct -1.4 04:21:42 18° SE 04:21:42 18° SE 04:23:58 10° E visible
27 Oct -3.4 05:54:40 11° WSW 05:57:53 62° SSE 06:01:14 10° E visible
28 Oct -3.0 05:09:06 33° SSW 05:10:12 47° SSE 05:13:27 10° E visible
29 Oct -1.9 04:23:27 29° ESE 04:23:27 29° ESE 04:25:37 10° E visible
29 Oct -3.8 05:56:24 15° W 05:59:08 87° SSE 06:02:30 10° E visible
30 Oct -3.8 05:10:41 53° WSW 05:11:22 76° SSE 05:14:44 10° E visible
31 Oct -2.0 04:24:55 32° E 04:24:55 32° E 04:26:57 10° E visible
31 Oct -3.8 05:57:52 17° W 06:00:23 85° N 06:03:45 10° E visible
01 Nov -0.1 03:39:08 10° E 03:39:08 10° E 03:39:09 10° E visible
01 Nov -3.9 05:12:05 62° W 05:12:36 87° N 05:15:59 10° E visible
02 Nov -1.9 04:26:16 31° E 04:26:16 31° E 04:28:11 10° E visible
02 Nov -3.8 05:59:13 18° W 06:01:37 82° SSW 06:04:59 10° ESE visible
03 Nov -3.9 05:13:23 65° W 05:13:50 89° NNE 05:17:13 10° E visible
04 Nov -1.8 04:27:35 30° E 04:27:35 30° E 04:29:25 10° E visible
04 Nov -3.4 06:00:31 18° W 06:02:47 54° SSW 06:06:05 10° ESE visible
